Hourly Weather Pekin

Today, 5 July, Sunday

Time Temperature Precipitation Wind Pressure Humidity
00:00 +27°C° 0 mm 1 mps 748 mmHg 67%
01:00 +27°C° 0 mm 1 mps 747 mmHg 67%
02:00 +26°C° 0 mm 1 mps 747 mmHg 68%
03:00 +26°C° 0 mm 1 mps 747 mmHg 66%
04:00 +26°C° 0 mm 1 mps 747 mmHg 65%
05:00 +26°C° 0 mm 2 mps 747 mmHg 64%
06:00 +26°C° 0 mm 1 mps 747 mmHg 61%
07:00 +27°C° 0 mm 1 mps 747 mmHg 59%
08:00 +28°C° 0 mm 1 mps 747 mmHg 56%
09:00 +29°C° 0 mm 1 mps 746 mmHg 51%
10:00 +31°C° 0 mm 1 mps 746 mmHg 46%
11:00 +33°C° 0 mm 1 mps 746 mmHg 41%
12:00 +34°C° 0 mm 1 mps 745 mmHg 38%
13:00 +35°C° 0 mm 1 mps 745 mmHg 35%
14:00 +36°C° 0 mm 1 mps 744 mmHg 31%
15:00 +34°C° 1.5 mm 3 mps 744 mmHg 44%
16:00 +30°C° 1.5 mm 4 mps 744 mmHg 56%
17:00 +27°C° 1.5 mm 6 mps 744 mmHg 69%
18:00 +27°C° 1.9 mm 4 mps 744 mmHg 70%
19:00 +26°C° 1.9 mm 3 mps 744 mmHg 71%
20:00 +26°C° 1.9 mm 2 mps 744 mmHg 72%
21:00 +26°C° 0.1 mm 2 mps 745 mmHg 72%
22:00 +26°C° 0.1 mm 1 mps 745 mmHg 72%
23:00 +26°C° 0.1 mm 1 mps 745 mmHg 72%

Tomorrow, 6 July, Monday

Time Temperature Precipitation Wind Pressure Humidity
00:00 +25°C° 0 mm 1 mps 745 mmHg 74%
01:00 +25°C° 0 mm 1 mps 745 mmHg 77%
02:00 +24°C° 0 mm 1 mps 745 mmHg 79%
03:00 +24°C° 0 mm 1 mps 745 mmHg 82%
04:00 +24°C° 0 mm 1 mps 745 mmHg 84%
05:00 +24°C° 0 mm 1 mps 745 mmHg 87%
06:00 +25°C° 0 mm 1 mps 745 mmHg 81%
07:00 +26°C° 0 mm 2 mps 746 mmHg 75%
08:00 +28°C° 0 mm 2 mps 746 mmHg 69%
09:00 +30°C° 0 mm 2 mps 746 mmHg 62%
10:00 +31°C° 0 mm 2 mps 746 mmHg 54%
11:00 +34°C° 0 mm 2 mps 746 mmHg 46%
12:00 +35°C° 0 mm 1 mps 746 mmHg 42%
13:00 +36°C° 0 mm 1 mps 746 mmHg 37%
14:00 +39°C° 0 mm 1 mps 745 mmHg 32%
15:00 +39°C° 0 mm 1 mps 745 mmHg 31%
16:00 +39°C° 0 mm 1 mps 745 mmHg 29%
17:00 +39°C° 0 mm 1 mps 745 mmHg 27%
18:00 +35°C° 1.9 mm 2 mps 746 mmHg 38%
19:00 +31°C° 1.9 mm 3 mps 747 mmHg 49%
20:00 +27°C° 1.9 mm 4 mps 747 mmHg 60%
21:00 +27°C° 0 mm 3 mps 748 mmHg 60%
22:00 +27°C° 0 mm 2 mps 748 mmHg 59%
23:00 +27°C° 0 mm 2 mps 748 mmHg 59%

Day after tomorrow, 7 July, Tuesday

Time Temperature Precipitation Wind Pressure Humidity
00:00 +26°C° 0.2 mm 1 mps 749 mmHg 61%
01:00 +26°C° 0.2 mm 1 mps 749 mmHg 64%
02:00 +26°C° 0.2 mm 1 mps 749 mmHg 66%
03:00 +25°C° 0.2 mm 1 mps 749 mmHg 68%
04:00 +25°C° 0.2 mm 1 mps 749 mmHg 69%
05:00 +25°C° 0.2 mm 1 mps 750 mmHg 70%
06:00 +26°C° 0.2 mm 2 mps 750 mmHg 68%
07:00 +28°C° 0.2 mm 2 mps 750 mmHg 65%
08:00 +29°C° 0.2 mm 2 mps 751 mmHg 63%
09:00 +31°C° 0 mm 2 mps 751 mmHg 57%
10:00 +32°C° 0 mm 2 mps 751 mmHg 50%
11:00 +35°C° 0 mm 2 mps 751 mmHg 44%
12:00 +36°C° 0 mm 2 mps 750 mmHg 41%
13:00 +37°C° 0 mm 2 mps 750 mmHg 38%
14:00 +38°C° 0 mm 2 mps 749 mmHg 35%
15:00 +39°C° 0 mm 2 mps 749 mmHg 34%
16:00 +39°C° 0 mm 3 mps 749 mmHg 33%
17:00 +39°C° 0 mm 3 mps 749 mmHg 32%
18:00 +37°C° 0.1 mm 3 mps 750 mmHg 39%
19:00 +35°C° 0.1 mm 3 mps 750 mmHg 45%
20:00 +33°C° 0.1 mm 3 mps 750 mmHg 51%
21:00 +30°C° 0.6 mm 2 mps 751 mmHg 58%
22:00 +29°C° 0.6 mm 2 mps 751 mmHg 65%
23:00 +27°C° 0.6 mm 1 mps 752 mmHg 72%

8 July, Wednesday

Time Temperature Precipitation Wind Pressure Humidity
00:00 +27°C° 0.5 mm 2 mps 752 mmHg 75%
01:00 +26°C° 0.5 mm 2 mps 752 mmHg 78%
02:00 +26°C° 0.5 mm 2 mps 752 mmHg 80%
03:00 +25°C° 0.8 mm 2 mps 752 mmHg 82%
04:00 +25°C° 0.8 mm 2 mps 752 mmHg 83%
05:00 +25°C° 0.8 mm 1 mps 752 mmHg 84%
06:00 +26°C° 0.1 mm 1 mps 752 mmHg 79%
07:00 +27°C° 0.1 mm 1 mps 752 mmHg 73%
08:00 +28°C° 0.1 mm 2 mps 752 mmHg 68%
09:00 +30°C° 0 mm 2 mps 751 mmHg 62%
10:00 +31°C° 0 mm 2 mps 751 mmHg 56%
11:00 +34°C° 0 mm 2 mps 751 mmHg 51%
12:00 +35°C° 0 mm 2 mps 750 mmHg 47%
13:00 +36°C° 0 mm 3 mps 750 mmHg 44%
14:00 +37°C° 0 mm 3 mps 749 mmHg 40%
15:00 +38°C° 0 mm 3 mps 748 mmHg 39%
16:00 +38°C° 0 mm 3 mps 748 mmHg 38%
17:00 +38°C° 0 mm 3 mps 747 mmHg 37%
18:00 +36°C° 0.1 mm 3 mps 748 mmHg 43%
19:00 +34°C° 0.1 mm 3 mps 748 mmHg 48%
20:00 +31°C° 0.1 mm 3 mps 748 mmHg 53%
21:00 +30°C° 0.7 mm 3 mps 748 mmHg 58%
22:00 +29°C° 0.7 mm 2 mps 748 mmHg 63%
23:00 +28°C° 0.7 mm 1 mps 749 mmHg 68%

9 July, Thursday

Time Temperature Precipitation Wind Pressure Humidity
00:00 +27°C° 0.5 mm 1 mps 748 mmHg 70%
01:00 +27°C° 0.5 mm 1 mps 748 mmHg 71%
02:00 +25°C° 0.5 mm 0 mps 748 mmHg 72%
03:00 +27°C° 0.1 mm 1 mps 748 mmHg 73%
04:00 +27°C° 0.1 mm 1 mps 748 mmHg 74%
05:00 +26°C° 0.1 mm 1 mps 748 mmHg 76%
06:00 +27°C° 0 mm 1 mps 748 mmHg 71%
07:00 +28°C° 0 mm 1 mps 748 mmHg 67%
08:00 +29°C° 0 mm 1 mps 748 mmHg 62%
09:00 +31°C° 0 mm 1 mps 748 mmHg 58%
10:00 +32°C° 0 mm 2 mps 748 mmHg 54%
11:00 +34°C° 0 mm 2 mps 748 mmHg 49%
12:00 +35°C° 0 mm 3 mps 748 mmHg 47%
13:00 +36°C° 0 mm 4 mps 747 mmHg 44%
14:00 +37°C° 0 mm 5 mps 747 mmHg 42%
15:00 +37°C° 0.1 mm 4 mps 747 mmHg 43%
16:00 +36°C° 0.1 mm 3 mps 746 mmHg 44%
17:00 +36°C° 0.1 mm 2 mps 746 mmHg 45%
18:00 +32°C° 2.4 mm 2 mps 746 mmHg 56%
19:00 +30°C° 2.4 mm 2 mps 746 mmHg 66%
20:00 +28°C° 2.4 mm 2 mps 747 mmHg 77%
21:00 +27°C° 0.6 mm 2 mps 747 mmHg 78%
22:00 +27°C° 0.6 mm 2 mps 747 mmHg 80%
23:00 +27°C° 0.6 mm 3 mps 748 mmHg 81%

10 July, Friday

Time Temperature Precipitation Wind Pressure Humidity
00:00 +26°C° 0.2 mm 3 mps 748 mmHg 80%
01:00 +26°C° 0.2 mm 3 mps 747 mmHg 80%
02:00 +25°C° 0.2 mm 3 mps 747 mmHg 79%
03:00 +25°C° 0.2 mm 3 mps 747 mmHg 80%
04:00 +24°C° 0.2 mm 3 mps 748 mmHg 81%
05:00 +24°C° 0.2 mm 3 mps 748 mmHg 82%
06:00 +24°C° 0.2 mm 3 mps 748 mmHg 81%
07:00 +25°C° 0.2 mm 3 mps 748 mmHg 80%
08:00 +25°C° 0.2 mm 3 mps 749 mmHg 79%
09:00 +25°C° 0.3 mm 3 mps 749 mmHg 78%
10:00 +26°C° 0.3 mm 3 mps 749 mmHg 76%
11:00 +27°C° 0.3 mm 3 mps 750 mmHg 75%
12:00 +26°C° 0.9 mm 3 mps 749 mmHg 77%
13:00 +26°C° 0.9 mm 3 mps 749 mmHg 80%
14:00 +26°C° 0.9 mm 2 mps 749 mmHg 82%
15:00 +25°C° 1.2 mm 3 mps 749 mmHg 83%
16:00 +25°C° 1.2 mm 3 mps 748 mmHg 84%
17:00 +25°C° 1.2 mm 4 mps 748 mmHg 86%
18:00 +25°C° 0.1 mm 3 mps 748 mmHg 86%
19:00 +25°C° 0.1 mm 2 mps 748 mmHg 85%
20:00 +25°C° 0.1 mm 1 mps 748 mmHg 85%
21:00 +25°C° 0.1 mm 2 mps 748 mmHg 84%
22:00 +25°C° 0.1 mm 2 mps 749 mmHg 84%
23:00 +25°C° 0.1 mm 2 mps 749 mmHg 83%
Show more